AIC1 VIDP-KSFO

Flight info

Callsign AIC1
Flight time N/A
Altitude 29000
Route LKN7C LKN A201 LSO A599 LINSO/K0961S0890 A599 SGM A581 EPGAL/K0945S0950 A581 WHA R343 PK W116 JTN G327 LAMEN/N0510F310 A593 SADLI Y590 BEDAR Y591 FUE Y23 KASTE Y81 TASOT/N0508F330 Y57 POROT Y809 IDLAN Y812 ADNAP OTR5 KALNA DCT 42N160E 43N170E/N0500F350 44N180E 46N170W 46N160W/N0504F370 47N150W 47N140W 44N130W DCT LINUZ DCT AMAKR BDEGA4
Aircraft B744/H-SDE3FGHIM1M2RWXY/LB1

Departure

Time N/A
Airport Indira Gandhi International Airport (VIDP)

Arrival

Time 2026-05-04 10:46
Airport San Francisco International Airport (KSFO)
Time Latitude Longitude Altitude Speed Heading
2026-05-04 09:43 43.15495 -128.68886 37019 ft 456 kts 125°
2026-05-04 09:43 43.11275 -128.62490 37022 ft 457 kts 126°
2026-05-04 09:44 43.07005 -128.56035 37018 ft 457 kts 126°
2026-05-04 09:46 42.89880 -128.30289 37018 ft 459 kts 126°
2026-05-04 09:46 42.85595 -128.23884 37017 ft 459 kts 126°
2026-05-04 09:47 42.81283 -128.17451 37017 ft 459 kts 126°
2026-05-04 09:49 42.64011 -127.91830 37011 ft 461 kts 127°
2026-05-04 09:51 42.48791 -127.69440 37011 ft 461 kts 128°
2026-05-04 09:51 42.44427 -127.63051 37024 ft 461 kts 128°
2026-05-04 09:52 42.40081 -127.56701 37031 ft 462 kts 128°
2026-05-04 09:52 42.35706 -127.50326 37038 ft 462 kts 128°
2026-05-04 09:53 42.31334 -127.43968 37038 ft 462 kts 128°
2026-05-04 09:53 42.26940 -127.37591 37038 ft 462 kts 128°
2026-05-04 09:54 42.22561 -127.31252 37038 ft 462 kts 128°
2026-05-04 09:54 42.18188 -127.24934 37038 ft 462 kts 128°
2026-05-04 09:55 42.13794 -127.18600 37038 ft 462 kts 128°
2026-05-04 09:55 42.09430 -127.12322 37038 ft 462 kts 128°
2026-05-04 09:56 42.05033 -127.06009 37042 ft 462 kts 128°
2026-05-04 09:56 42.00902 -127.00092 37042 ft 462 kts 128°
2026-05-04 09:57 41.96503 -126.93804 37043 ft 464 kts 129°
2026-05-04 09:57 41.92039 -126.87437 37043 ft 465 kts 129°
2026-05-04 09:58 41.87578 -126.81081 37042 ft 465 kts 129°
2026-05-04 09:58 41.83179 -126.74779 37043 ft 465 kts 129°
2026-05-04 10:00 41.65306 -126.49730 37038 ft 466 kts 133°
2026-05-04 10:04 41.29832 -126.11304 37054 ft 470 kts 136°
2026-05-04 10:04 41.24738 -126.05821 37054 ft 470 kts 137°
2026-05-04 10:05 41.19644 -126.00354 37054 ft 471 kts 137°
2026-05-04 10:05 41.14561 -125.94916 37054 ft 471 kts 137°
2026-05-04 10:06 41.09454 -125.89465 37054 ft 471 kts 137°
2026-05-04 10:06 41.04329 -125.84005 37053 ft 472 kts 137°
2026-05-04 10:08 40.87238 -125.65883 37048 ft 473 kts 137°
2026-05-04 10:08 40.82092 -125.60449 37049 ft 473 kts 137°
2026-05-04 10:09 40.76969 -125.55050 37049 ft 473 kts 137°
2026-05-04 10:09 40.71826 -125.49644 37050 ft 473 kts 137°
2026-05-04 10:10 40.66672 -125.44235 37050 ft 473 kts 137°
2026-05-04 10:10 40.61513 -125.38834 37050 ft 474 kts 137°
2026-05-04 10:11 40.56361 -125.33450 37051 ft 474 kts 138°
2026-05-04 10:11 40.51201 -125.28069 37053 ft 474 kts 138°
2026-05-04 10:12 40.46041 -125.22699 37053 ft 473 kts 138°
2026-05-04 10:12 40.40984 -125.17446 37054 ft 473 kts 138°
2026-05-04 10:13 40.35708 -125.11977 37054 ft 473 kts 138°
2026-05-04 10:13 40.30526 -125.06615 37054 ft 473 kts 138°
2026-05-04 10:14 40.25376 -125.01298 37054 ft 473 kts 138°
2026-05-04 10:16 40.04672 -124.80029 37053 ft 472 kts 138°
2026-05-04 10:16 39.99510 -124.74752 37052 ft 473 kts 139°
2026-05-04 10:17 39.94318 -124.69455 37051 ft 474 kts 139°
2026-05-04 10:19 39.73545 -124.48367 37046 ft 473 kts 139°
2026-05-04 10:19 39.68339 -124.43107 37044 ft 473 kts 139°
2026-05-04 10:20 39.63145 -124.37870 37042 ft 473 kts 139°
2026-05-04 10:20 39.57981 -124.32674 37040 ft 473 kts 139°
2026-05-04 10:21 39.52768 -124.27439 37038 ft 473 kts 139°
2026-05-04 10:21 39.47556 -124.22213 37038 ft 473 kts 139°
2026-05-04 10:22 39.39730 -124.14387 37032 ft 474 kts 140°
2026-05-04 10:23 39.34511 -124.09181 37030 ft 474 kts 140°
2026-05-04 10:25 39.13602 -123.88395 37022 ft 476 kts 141°
2026-05-04 10:25 39.08349 -123.83218 37024 ft 476 kts 141°
2026-05-04 10:26 39.03074 -123.78026 37024 ft 477 kts 141°
2026-05-04 10:26 38.97990 -123.72560 37024 ft 476 kts 136°
2026-05-04 10:27 38.93346 -123.66595 37032 ft 464 kts 134°
2026-05-04 10:27 38.91115 -123.63687 37035 ft 450 kts 134°
2026-05-04 10:27 38.88932 -123.60860 37027 ft 443 kts 134°
2026-05-04 10:28 38.84573 -123.55282 37027 ft 441 kts 135°
2026-05-04 10:28 38.80179 -123.49671 37023 ft 452 kts 135°
2026-05-04 10:29 38.75638 -123.43890 36979 ft 469 kts 135°
2026-05-04 10:29 38.73329 -123.40899 36535 ft 486 kts 134°
2026-05-04 10:29 38.70911 -123.37776 35521 ft 496 kts 134°
2026-05-04 10:29 38.68459 -123.34651 34429 ft 500 kts 134°
2026-05-04 10:30 38.65994 -123.31527 33547 ft 498 kts 133°
2026-05-04 10:30 38.63521 -123.28402 32650 ft 496 kts 133°
2026-05-04 10:30 38.61077 -123.25312 31722 ft 493 kts 133°
2026-05-04 10:30 38.58647 -123.22246 30797 ft 490 kts 132°
2026-05-04 10:31 38.56221 -123.19185 29828 ft 487 kts 131°
2026-05-04 10:31 38.53806 -123.16139 28830 ft 484 kts 131°
2026-05-04 10:32 38.40071 -122.98784 23872 ft 458 kts 132°
2026-05-04 10:33 38.37815 -122.95950 23122 ft 453 kts 133°
2026-05-04 10:33 38.35565 -122.93130 22369 ft 449 kts 133°
2026-05-04 10:33 38.33354 -122.90363 21631 ft 444 kts 133°
2026-05-04 10:33 38.31159 -122.87618 20891 ft 440 kts 133°
2026-05-04 10:34 38.28981 -122.84897 20146 ft 437 kts 133°
2026-05-04 10:34 38.26825 -122.82204 19425 ft 433 kts 133°
2026-05-04 10:34 38.24678 -122.79524 18647 ft 431 kts 134°
2026-05-04 10:34 38.22523 -122.76969 17922 ft 428 kts 138°
2026-05-04 10:35 38.20181 -122.74643 17209 ft 425 kts 142°
2026-05-04 10:35 38.17767 -122.72481 16477 ft 423 kts 144°
2026-05-04 10:35 38.15328 -122.70410 15777 ft 419 kts 144°
2026-05-04 10:35 38.12903 -122.68358 15074 ft 416 kts 144°
2026-05-04 10:36 38.10517 -122.66329 14351 ft 413 kts 144°
2026-05-04 10:36 38.08156 -122.64234 13705 ft 412 kts 143°
2026-05-04 10:36 38.05826 -122.62102 13358 ft 412 kts 143°
2026-05-04 10:36 38.03503 -122.59977 13116 ft 410 kts 143°
2026-05-04 10:37 38.01198 -122.57866 12848 ft 408 kts 143°
2026-05-04 10:37 37.98918 -122.55773 12460 ft 401 kts 143°
2026-05-04 10:37 37.96678 -122.53702 11869 ft 398 kts 143°
2026-05-04 10:37 37.94453 -122.51636 11263 ft 394 kts 143°
2026-05-04 10:39 37.81585 -122.39448 7727 ft 385 kts 143°
2026-05-04 10:39 37.79470 -122.37390 7140 ft 381 kts 141°
2026-05-04 10:39 37.77476 -122.35216 6580 ft 376 kts 138°
2026-05-04 10:40 37.75564 -122.33008 6063 ft 365 kts 138°
2026-05-04 10:40 37.73755 -122.30899 5567 ft 352 kts 138°
2026-05-04 10:40 37.71974 -122.28799 5058 ft 340 kts 137°
2026-05-04 10:40 37.70348 -122.26681 4556 ft 330 kts 134°
2026-05-04 10:41 37.68827 -122.24627 4155 ft 319 kts 136°
2026-05-04 10:41 37.67238 -122.22767 3892 ft 303 kts 141°
2026-05-04 10:41 37.65641 -122.21170 3752 ft 284 kts 146°
2026-05-04 10:41 37.64050 -122.19827 3603 ft 265 kts 151°
2026-05-04 10:42 37.62419 -122.18995 3456 ft 243 kts 174°
2026-05-04 10:42 37.60847 -122.19260 3322 ft 217 kts 204°
2026-05-04 10:42 37.59746 -122.20395 3151 ft 197 kts 226°
2026-05-04 10:42 37.58935 -122.21692 2941 ft 179 kts 233°
2026-05-04 10:43 37.58279 -122.22955 2523 ft 170 kts 236°
2026-05-04 10:44 37.59625 -122.31599 749 ft 154 kts 296°
2026-05-04 10:45 37.60128 -122.32797 545 ft 155 kts 296°
2026-05-04 10:45 37.60631 -122.33995 339 ft 154 kts 297°
2026-05-04 10:45 37.61132 -122.35188 136 ft 153 kts 297°
2026-05-04 10:45 37.61619 -122.36349 38 ft 148 kts 297°
2026-05-04 10:46 37.62069 -122.37422 27 ft 109 kts 296°
2026-05-04 10:46 37.62225 -122.37899 26 ft 23 kts 268°
2026-05-04 10:46 37.62232 -122.38096 26 ft 22 kts 275°
2026-05-04 10:46 37.62194 -122.38275 26 ft 21 kts 248°
2026-05-04 10:47 37.62189 -122.38452 26 ft 20 kts 280°
2026-05-04 10:47 37.62212 -122.38594 26 ft 11 kts 268°
2026-05-04 10:47 37.62160 -122.38657 26 ft 11 kts 239°
2026-05-04 10:47 37.62184 -122.38736 26 ft 10 kts 305°
2026-05-04 10:49 37.62164 -122.38996 26 ft 0 kts 185°